Regional Weather Roundup
Issued by NWS Boston, MA

Current Version | Previous Version | Text Only | Print | Product List | Glossary Off
Versions: 1 2 3 4 5 6 7 8 9 10 11 12 13 14 15 16 17 18 19 20 21 22 23 24 25 26 27 28 29 30 31 32 33 34 35 36 37 38 39 40 41 42 43 44 45 46 47 48 49
000 ASUS41 KBOX 161910 RWRBOX REGIONAL WEATHER ROUNDUP NATIONAL WEATHER SERVICE BOSTON/NORTON MA 300 PM EDT TUE OCT 16 2018 NOTE: "FAIR" INDICATES FEW OR NO CLOUDS BELOW 12,000 FEET WITH NO SIGNIFICANT WEATHER AND/OR OBSTRUCTIONS TO VISIBILITY. MAZALL-162000- EASTERN MASSACHUSETTS CITY SKY/WX TMP DP RH WIND PRES REMARKS BOSTON FAIR 59 30 33 W15 29.98F BEVERLY FAIR 56 31 38 W14G23 29.96F LAWRENCE FAIR 59 31 34 W10G23 29.98F BEDFORD FAIR 58 32 37 W14G24 29.97F BLUE HILL N/A 55 33 43 W8G22 29.97S NORWOOD FAIR 60 33 36 NW13 29.98F MARSHFIELD FAIR 59 34 38 W8 29.98S PLYMOUTH FAIR 58 34 40 SW14 30.00S TAUNTON FAIR 58 33 39 SW9G17 30.00F NEW BEDFORD FAIR 56 37 49 W13 30.00F $$ MAZALL-162000- CAPE COD AND THE ISLANDS CITY SKY/WX TMP DP RH WIND PRES REMARKS FALMOUTH FAIR 55 34 44 W9G17 30.01F HYANNIS FAIR 57 34 41 W10 29.99F CHATHAM FAIR 57 36 45 VRB6 30.01S PROVINCETOWN FAIR 57 35 43 W12 29.99F NANTUCKET FAIR 55 36 48 W15 30.02F MARTHAS VNYRD FAIR 54 36 50 W12 30.02F $$ MAZALL-162000- CENTRAL AND WESTERN MASSACHUSETTS CITY SKY/WX TMP DP RH WIND PRES REMARKS WORCESTER FAIR 52 34 50 W12G18 29.99F FITCHBURG FAIR 55 32 41 W13G22 29.99F ORANGE FAIR 55 32 41 NW15G23 30.01F SPRINGFIELD MOSUNNY 56 30 37 NW14 30.00F WESTFIELD SUNNY 55 32 41 N8 30.02F NORTH ADAMS LGT RAIN 49 32 52 W13G23 30.02F PITTSFIELD FAIR 50 32 50 NW13 30.01F $$ RIZALL-162000- RHODE ISLAND CITY SKY/WX TMP DP RH WIND PRES REMARKS PROVIDENCE FAIR 57 34 41 W13G20 30.02S NEWPORT FAIR 55 34 45 VRB6 30.01F BLOCK ISLAND FAIR 55 36 48 W15G21 30.04F SMITHFIELD FAIR 55 33 43 W12G18 30.00F WESTERLY FAIR 56 36 47 W12 30.04F $$ CTZALL-162000- CONNECTICUT CITY SKY/WX TMP DP RH WIND PRES REMARKS BRADLEY INTL FAIR 58 32 37 W10 30.02F HARTFORD FAIR 56 32 40 SW7 30.02F BRIDGEPORT FAIR 54 32 43 W9 30.06F DANBURY FAIR 52 31 44 SW10 30.06F GROTON FAIR 56 35 45 W9 30.03F NEW HAVEN PTSUNNY 55 34 45 W9 30.05F CHESTER FAIR 55 32 41 CALM 30.04F MERIDEN FAIR 56 32 40 VRB7 30.04F WILLIMANTIC FAIR 55 35 47 W10 30.03F OXFORD FAIR 53 34 48 SW9 30.04F $$ MEZ002-015-021-024-NHZ003-005-008-011-012-014-VTZ005-008-162000- NORTHERN NEW ENGLAND CITY SKY/WX TMP DP RH WIND PRES REMARKS PORTLAND ME FAIR 56 29 35 W15G23 29.91S BANGOR ME FAIR 53 29 39 W13G23 29.84S CONCORD NH FAIR 56 28 34 NW13G22 29.95F MANCHESTER NH FAIR 57 29 34 W9G22 29.95F NASHUA NH FAIR 56 31 38 VRB6 29.98F PORTSMOUTH NH MOSUNNY 57 27 32 W12G24 29.93F JAFFREY NH FAIR 52 33 48 W8 29.98F KEENE NH PTSUNNY 53 32 44 SW13 29.99F BURLINGTON VT PTSUNNY 53 27 36 W13G21 29.98F MT. WASHINGTON FOG 19 19 100 W62G76 N/A VSB 1/8 WCI -5 $$ NYZ052-076-162000- EASTERN NEW YORK CITY SKY/WX TMP DP RH WIND PRES REMARKS ALBANY FAIR 55 33 43 NW9 30.04F NEW YORK CITY PTSUNNY 56 28 34 W8 30.08F $$ ANZALL-162000- MARINE OBSERVATIONS STATION/POSITION TIME TEMP WIND PRES VSBY WAVE AIR SEA DIR/SP/G HT/PER (UTC) (F) (DEG/KT/KT) (MB) (MI) (FT/S) BOSTON BUOY 1850 55 59 260/ 14/ 17 1014.3F 2/ 4 BUZZARDS BAY 1900 53 260/ 10/ 12 1017.1F NANTUCKET SOUND 1900 53 250/ 14/ 17 1016.4 MASS BAY-STELLWA 1804 54 58 270/ 12/ 16 1014.0F 1 5/8 2/ 3 ISLE OF SHOALS 1900 54 270/ 20/ 22 1013.2F S OF BLOCK IS 1843 63 N/A 5/ 8 $$ ......................KEY......................... SKY/WX - SKY CONDITION/PRESENT WEATHER TMP - TEMPERATURE IN FAHRENHEIT DWPT - DEWPOINT IN FAHRENHEIT RH - RELATIVE HUMIDITY IN PERCENT WIND - DIRECTION AND SPEED IN MPH PRES - MEAN SEA LEVEL PRESSURE IN INCHES OF HG WCI - WIND CHILL INDEX VSB - VISIBILITY IN MILES HX - HEAT INDEX TC - TEMPERATURE IN CELSIUS VRB - VARIABLE WIND DIRECTION N/A - NOT AVAILABLE

USA.gov is the U.S. government's official web portal to all federal, state and local government web resources and services.